Wind_Speed
21 22 20 19 18 17 18 19 21 22 22 22 21 20 21 19 14 13 13 16 18 19 19 19 16 14 14 14 17 21 22 21 15 11 13 14 14 16 19 21 23 27 32 34 35 35 34 34 34 33 31 31 32 32 33 34 34 33 33 34 36 36 37 38 39 40 39 39 39 37 35 39 42 39 39 40 37 36 38 40 42 41 39 38 37 36 33
21 23 24 24 22 20 20 22 22 23 24 25 24 23 23 23 21 19 17 18 19 18 19 22 22 21 20 20 22 23 23 21 17 12 13 14 15 18 21 22 24 27 31 34 35 35 34 34 33 32 31 31 30 31 31 32 32 32 32 33 33 34 34 34 35 36 36 36 36 32 29 33 38 39 39 38 34 35 41 44 43 42 40 39 39 40 36
17 21 23 24 24 23 23 23 24 24 24 25 25 24 23 22 22 22 23 22 18 15 16 19 23 26 26 23 21 22 24 24 20 15 15 16 16 19 22 23 24 27 29 31 35 36 35 34 32 31 30 29 29 30 29 29 29 29 30 30 29 29 29 29 30 30 31 30 31 31 29 30 33 36 38 36 33 35 41 45 45 43 40 39 41 41 35
11 16 20 22 23 23 23 22 23 24 23 21 21 21 21 21 20 22 23 20 14 13 16 18 20 23 21 18 19 23 26 26 22 17 16 18 19 21 23 25 26 28 31 34 37 37 35 33 32 30 30 29 28 28 27 26 26 25 26 26 25 24 23 24 25 26 25 26 27 27 27 29 31 33 35 34 32 35 40 44 46 45 41 41 44 42 34
9 13 17 19 19 18 17 17 19 22 22 21 21 20 22 23 21 18 17 15 13 14 15 17 20 22 20 17 20 24 24 22 21 19 17 18 18 20 24 26 29 31 34 36 37 37 34 32 31 29 27 27 26 25 24 22 22 22 21 21 20 19 19 20 21 21 22 23 22 21 22 25 28 30 32 31 31 35 40 44 46 46 45 44 45 41 34
8 12 12 12 14 15 12 12 18 23 23 23 23 21 22 23 20 17 15 14 14 15 16 18 19 20 21 21 24 28 25 20 18 17 17 16 15 17 21 24 27 30 31 32 35 35 32 30 28 26 26 25 24 22 21 19 19 19 18 17 16 16 15 16 17 17 19 20 18 16 18 21 24 27 28 29 30 33 39 44 46 47 47 46 44 39 33
7 7 8 10 12 12 9 7 11 16 19 22 23 22 23 22 21 20 20 18 16 15 16 19 19 20 22 22 23 25 24 22 19 15 15 16 15 16 18 20 24 29 31 32 33 33 31 30 29 28 26 24 21 20 19 19 18 17 16 15 14 13 14 14 14 15 16 17 14 16 19 21 22 24 24 25 28 31 36 43 46 47 48 47 43 37 33
6 6 8 11 9 7 8 6 5 7 12 18 20 20 22 23 21 21 20 20 20 17 17 21 21 19 17 15 17 21 21 23 22 16 14 16 16 17 19 20 23 28 31 32 31 30 30 29 28 26 24 22 21 21 21 19 18 17 16 15 14 13 13 13 13 12 14 14 14 16 19 18 19 22 23 23 26 30 35 40 43 45 46 45 40 36 33
4 5 7 9 9 9 8 4 2 3 5 8 9 11 16 19 21 21 19 20 21 19 21 23 19 13 10 8 13 20 21 23 24 18 13 15 16 17 19 20 23 26 27 28 28 28 27 26 24 23 23 23 24 23 22 20 19 18 16 14 13 12 12 12 11 10 11 12 14 15 16 16 18 21 21 21 25 29 32 35 39 43 46 44 39 34 33
4 5 7 9 10 9 4 2 5 7 8 7 6 6 9 14 18 20 19 19 20 19 21 20 12 9 8 9 12 17 20 21 23 18 14 13 15 16 18 20 22 24 24 24 25 25 26 25 25 25 26 26 25 24 23 21 19 17 15 13 11 10 10 9 8 9 10 11 12 14 15 15 16 16 17 20 24 26 28 31 35 38 41 42 39 35 34
8 7 7 7 9 5 3 5 7 9 9 7 4 6 9 11 15 21 22 20 19 20 20 15 11 8 10 10 11 14 18 17 17 17 14 13 15 18 19 21 23 24 26 27 26 26 28 29 29 29 29 28 26 24 22 20 18 16 14 12 10 9 8 8 7 9 10 9 10 11 12 13 14 13 14 18 21 23 24 27 31 32 33 35 33 29 28
11 10 8 7 7 2 5 7 10 10 7 3 5 9 7 4 9 14 18 20 21 22 20 15 11 11 11 7 5 10 14 13 13 15 16 17 18 19 18 20 24 28 30 30 29 29 31 32 33 32 30 28 26 24 22 20 17 15 13 11 10 9 8 8 8 9 9 8 9 10 11 12 13 12 12 15 18 20 20 21 25 27 27 26 24 22 21
11 12 10 8 6 0 6 10 11 9 6 6 7 7 4 8 14 15 12 15 19 20 19 16 12 10 6 3 7 12 14 13 14 14 15 17 18 20 22 24 28 30 30 31 32 33 34 35 34 32 30 28 25 23 21 19 17 15 13 11 10 9 9 9 9 10 8 7 9 9 10 12 13 12 11 12 15 16 15 17 19 20 21 20 19 19 18
11 11 10 9 7 1 7 11 9 4 5 6 4 7 11 12 13 12 10 11 12 12 15 15 11 9 9 10 11 12 13 15 17 16 16 17 18 21 24 26 27 30 32 34 35 35 34 33 31 30 28 26 24 22 19 17 15 13 12 11 10 9 9 10 10 9 7 8 9 10 11 13 15 12 10 12 13 12 13 16 16 15 16 17 17 17 16
8 9 10 10 8 2 7 9 4 1 3 7 10 13 13 11 10 8 6 6 7 8 12 13 13 14 15 15 16 17 16 17 19 18 18 20 21 23 25 27 28 32 35 36 35 34 32 30 28 26 24 23 21 18 16 14 13 12 11 10 10 9 9 10 9 8 8 9 10 11 12 13 14 11 10 11 13 13 15 17 15 13 14 16 17 15 13
9 11 10 5 2 5 8 7 3 3 8 14 15 13 9 7 7 5 3 1 3 8 11 15 18 19 19 19 20 22 22 21 22 22 23 24 25 26 28 30 32 34 35 34 32 30 28 26 25 23 20 19 18 16 13 11 10 10 9 9 8 7 7 8 8 7 7 8 9 10 12 12 11 11 11 12 13 14 15 15 13 13 15 17 16 13 11
4 4 1 3 5 7 9 9 5 6 11 13 12 9 6 4 4 4 5 6 6 10 16 20 21 22 23 24 24 24 25 24 25 28 29 30 31 31 32 32 32 31 30 29 27 26 24 22 21 20 17 15 14 12 10 9 8 7 6 6 5 5 5 5 6 6 6 7 8 10 11 11 11 11 12 13 14 15 14 12 13 15 16 16 15 12 9
3 3 5 6 6 8 11 13 11 9 10 11 9 6 5 6 9 12 12 13 13 13 16 21 25 26 26 27 27 27 27 26 27 31 32 31 31 31 30 29 26 25 24 23 22 22 21 19 18 17 15 13 11 10 9 8 6 4 4 3 3 3 3 3 4 5 5 6 7 9 10 10 10 11 12 13 14 14 12 12 14 15 15 15 15 12 8
4 2 6 6 5 8 14 17 15 12 11 11 9 8 8 9 14 19 20 18 18 16 16 20 25 27 28 27 27 27 27 27 28 30 30 29 28 28 27 25 23 22 22 21 20 19 18 17 15 13 12 11 10 8 7 6 4 3 2 2 2 2 2 2 3 4 5 6 7 7 8 9 9 10 11 12 13 12 12 14 16 16 15 15 16 14 10
2 3 6 6 7 11 17 20 16 13 13 12 11 11 12 14 19 26 28 24 21 20 19 20 25 27 27 26 25 25 26 27 28 28 28 26 25 24 22 21 20 19 19 18 17 17 16 15 12 11 9 8 7 6 4 4 3 3 2 1 1 2 4 4 3 5 6 7 7 7 8 9 10 11 11 12 13 12 12 14 16 16 15 14 15 15 11
3 4 4 4 6 10 16 20 15 13 14 12 13 14 16 19 23 29 31 27 23 22 21 23 26 27 25 24 24 24 24 25 26 26 25 23 21 20 18 17 16 16 15 14 13 13 13 12 10 9 7 6 5 4 4 4 4 4 3 2 2 4 6 5 4 6 7 7 8 7 9 12 14 14 13 13 13 13 13 14 15 17 16 13 13 13 11
3 3 3 4 4 4 9 13 8 11 14 13 16 20 22 21 21 25 27 26 23 22 22 23 24 25 24 23 23 24 23 23 22 22 22 21 19 18 17 15 14 13 12 11 10 10 9 8 7 7 6 5 5 5 5 6 5 5 5 5 5 7 8 6 5 6 6 7 8 9 10 13 14 13 13 12 13 13 14 14 14 15 15 13 13 12 9
3 3 2 3 3 4 7 9 5 3 10 15 17 20 22 22 21 21 23 24 22 22 22 23 23 25 24 22 22 23 21 20 20 20 20 19 18 16 15 14 13 12 10 10 9 7 7 6 6 5 6 6 7 7 7 7 7 6 7 8 9 10 10 8 8 8 7 8 9 10 11 11 11 12 11 10 9 10 12 13 13 13 14 15 15 13 12
3 3 2 5 7 9 10 8 5 5 3 11 17 20 21 21 22 21 22 23 21 20 21 22 22 22 22 21 22 22 20 19 18 17 17 17 16 15 13 12 11 9 8 8 7 6 6 6 5 6 7 7 8 9 8 8 9 10 11 11 10 10 10 10 10 10 8 7 8 9 9 8 9 10 9 7 7 8 10 11 12 13 15 15 14 15 16
2 3 6 11 15 14 12 12 11 9 9 6 10 16 18 19 20 20 21 22 21 18 19 19 19 20 20 20 19 19 18 17 16 15 14 14 13 13 12 11 10 9 8 8 7 6 6 6 7 7 8 8 9 10 10 11 12 13 13 12 11 10 10 9 9 10 9 8 7 7 7 8 8 7 6 6 7 8 10 11 13 14 15 15 14 15 15
5 7 13 18 19 16 13 13 13 13 11 10 9 12 14 14 15 17 18 19 18 17 16 17 17 17 17 17 17 16 15 15 14 14 14 13 12 11 10 10 9 9 8 7 6 6 6 7 8 8 8 8 9 10 11 13 13 14 15 14 12 11 11 9 8 8 8 8 7 7 8 9 8 8 8 8 9 9 11 13 15 15 15 15 14 13 12
12 10 13 17 15 13 13 11 10 12 16 16 15 15 14 12 12 13 15 17 17 16 15 15 14 13 13 14 14 14 13 11 10 11 12 12 12 11 9 8 8 7 7 7 5 5 6 8 8 7 7 8 8 9 12 14 15 16 17 16 14 12 11 9 7 7 7 7 8 8 9 9 8 9 10 11 11 13 14 15 16 15 14 13 12 11 10
21 19 18 17 14 12 13 12 12 14 17 16 15 14 12 12 13 13 14 15 15 14 14 13 12 12 11 11 10 10 10 8 7 7 6 7 8 7 6 7 6 5 5 5 4 4 6 6 6 6 6 8 9 10 11 13 14 15 17 17 14 12 10 8 6 6 5 5 7 9 9 9 9 9 11 12 14 15 15 14 13 13 12 11 11 10 10
22 22 21 18 15 13 13 13 14 15 15 13 12 10 9 10 12 13 13 13 11 10 10 10 10 10 10 9 8 9 8 8 8 7 6 4 2 2 2 3 5 4 3 2 2 2 4 5 5 5 6 7 9 10 10 12 13 14 16 17 14 11 9 7 5 5 5 6 8 10 10 10 10 11 13 14 14 13 12 11 11 11 10 10 9 10 10
18 19 18 16 14 14 15 15 15 15 13 12 12 11 10 9 10 11 10 9 8 7 7 7 8 8 8 7 7 7 7 6 6 6 5 3 2 2 2 1 3 4 3 1 1 1 2 4 6 7 7 8 9 9 10 11 12 13 16 18 15 13 11 8 5 6 7 9 10 12 12 12 13 13 13 13 12 11 11 11 10 10 10 9 9 9 10
16 15 15 14 13 13 14 13 13 12 11 10 10 10 10 10 10 10 8 8 8 8 7 8 8 8 8 7 5 5 5 4 5 4 4 4 5 5 4 2 1 1 1 2 3 3 3 4 5 8 9 9 9 10 10 11 12 12 14 16 15 14 12 9 6 6 8 10 12 13 13 13 13 13 12 12 12 11 11 10 10 11 10 10 9 9 10
17 15 12 11 10 9 8 9 10 10 9 8 8 9 10 10 9 8 7 7 8 8 8 8 8 8 7 7 6 5 5 5 5 5 5 5 5 6 6 5 3 3 4 4 4 5 5 4 5 7 8 8 9 10 11 12 13 13 14 14 13 12 10 8 6 7 9 11 12 13 14 13 12 12 12 12 11 11 11 10 10 11 10 9 9 9 9
13 10 7 6 5 4 4 5 6 6 7 9 10 10 10 9 8 7 7 6 6 6 6 6 7 6 6 6 6 6 7 6 6 6 6 5 5 6 7 6 5 5 6 6 5 4 4 4 6 7 8 8 10 10 10 11 13 14 14 12 10 10 9 8 9 9 10 10 12 13 13 13 13 13 12 11 10 10 10 10 9 10 10 10 10 10 9
4 3 3 3 2 1 2 3 3 3 4 5 7 7 7 7 6 5 5 4 4 4 5 6 6 6 6 6 7 8 8 8 7 7 7 6 5 5 5 5 5 5 6 6 6 4 3 5 8 8 7 8 9 9 9 10 12 14 14 12 9 9 10 10 10 10 10 11 12 12 12 13 13 12 11 10 9 9 10 9 8 9 9 9 9 9 9
2 3 4 5 4 4 2 2 3 3 3 2 3 4 5 5 4 5 5 4 4 5 7 7 8 8 8 9 10 10 10 10 9 8 8 7 5 4 3 3 3 3 3 5 7 6 4 5 7 8 7 8 9 9 9 10 11 12 13 12 10 10 11 12 11 10 11 11 12 11 11 11 11 10 10 10 9 9 9 8 7 7 7 7 7 8 10
3 3 4 4 3 2 1 2 3 3 3 3 3 4 4 5 5 6 6 7 8 9 9 10 10 10 10 11 11 10 10 9 8 8 7 6 5 4 4 4 4 3 2 3 3 3 2 4 6 8 8 8 8 8 9 10 10 11 12 12 11 12 12 12 11 11 11 11 11 11 11 11 10 8 8 8 8 8 8 8 8 7 7 6 7 9 10
4 3 2 2 1 1 1 2 2 2 2 3 3 3 4 6 6 7 7 9 10 10 10 10 10 11 11 10 9 9 8 8 7 7 6 5 4 4 4 4 4 3 3 1 0 1 2 5 7 8 8 7 7 8 10 11 11 11 12 12 13 13 13 12 12 11 10 10 10 9 9 8 8 7 7 7 7 7 7 7 8 7 6 7 8 9 10
4 3 2 2 2 2 2 2 2 2 2 2 2 2 4 5 5 6 8 9 9 8 8 9 9 10 10 10 10 9 8 7 7 7 6 5 4 4 3 2 2 1 1 1 1 1 3 6 8 7 6 6 7 8 10 11 12 12 12 13 13 13 12 12 11 10 9 8 8 7 6 6 7 7 7 6 6 5 5 6 6 5 5 6 8 9 10
6 5 4 4 3 3 3 3 3 3 3 3 3 3 4 4 5 6 7 8 8 8 8 8 9 9 10 11 11 10 9 8 7 6 6 5 4 4 3 2 1 1 3 3 3 2 3 5 6 6 6 7 8 8 10 12 12 11 12 12 11 11 10 10 9 9 9 8 8 8 7 7 7 7 6 6 5 5 5 6 6 5 5 5 6 8 10
7 6 6 6 5 5 5 4 4 4 4 5 4 4 5 6 6 7 7 7 7 8 8 8 8 8 9 11 11 11 11 11 9 7 6 5 5 5 5 5 5 4 4 4 3 4 5 6 5 5 6 7 8 9 12 12 11 9 10 10 9 9 9 9 9 9 9 8 8 8 7 7 7 7 6 6 5 4 4 5 5 4 4 5 5 6 8
8 7 7 7 7 7 7 7 7 6 6 6 5 5 6 6 6 6 6 6 7 8 8 8 7 8 8 9 9 9 10 11 10 8 7 6 6 6 6 6 6 5 4 3 3 5 6 6 5 6 7 8 8 9 10 10 9 8 9 9 9 8 9 9 9 8 8 8 8 8 7 7 7 7 6 5 5 4 4 4 4 4 5 5 6 6 7
9 9 9 9 9 9 9 9 9 8 8 7 6 6 6 6 6 6 6 6 7 7 8 8 8 7 7 7 7 8 8 9 9 9 8 8 7 6 6 6 5 3 4 4 3 4 5 5 5 6 7 9 9 9 8 8 8 8 9 9 9 8 8 8 8 8 8 8 8 8 7 6 6 6 5 5 4 4 4 4 5 5 6 6 7 8 9
9 9 9 10 10 10 10 10 10 10 9 9 8 8 8 8 8 8 8 8 8 9 9 9 9 9 8 8 8 8 8 8 8 8 8 8 6 5 6 6 4 4 6 6 5 4 5 5 5 6 7 9 9 9 8 8 9 9 9 9 9 9 8 8 8 8 9 9 9 8 8 7 6 6 5 5 4 4 5 5 6 7 8 9 10 11 11
9 9 9 10 10 10 10 10 10 9 9 10 10 10 10 10 10 10 10 9 10 10 11 11 11 10 10 9 9 8 8 8 8 8 8 7 7 6 5 5 5 5 6 7 6 6 7 6 6 8 9 10 11 11 9 8 8 8 8 8 8 8 9 9 9 9 9 9 8 8 8 7 6 6 5 5 4 3 3 4 4 5 6 8 9 11 12
7 8 8 9 9 9 9 9 9 9 8 9 10 11 11 11 11 12 12 12 11 11 11 12 12 11 11 10 9 8 8 8 8 9 8 8 7 6 5 4 3 3 4 5 5 4 5 6 8 9 9 10 11 10 8 6 7 7 7 7 8 8 9 9 9 9 9 8 8 8 8 7 7 6 5 5 4 3 3 3 3 4 5 5 6 8 10
5 6 6 7 8 8 8 8 8 8 8 7 8 9 10 10 10 11 12 12 12 11 11 11 11 11 11 11 10 9 8 8 8 9 9 8 7 6 4 3 2 2 3 3 3 2 2 5 7 8 9 10 9 7 5 5 6 6 6 7 7 8 8 9 8 8 8 8 8 8 8 7 6 6 5 5 4 4 4 5 5 5 5 5 6 7 8
4 4 5 5 5 6 7 7 7 7 7 7 7 8 8 9 9 10 10 10 10 9 9 10 10 10 11 11 11 10 10 9 7 7 8 7 6 5 4 3 2 1 2 1 1 1 2 4 6 7 9 9 8 5 4 4 5 5 6 7 7 7 8 8 8 8 8 8 8 8 7 7 6 6 6 6 5 5 6 7 7 7 7 7 8 8 8
5 5 4 5 5 5 4 4 5 5 6 6 6 7 7 8 8 9 9 9 9 8 7 8 8 9 9 10 10 10 11 11 9 8 8 8 6 5 4 4 3 2 1 1 1 0 2 4 6 7 8 7 6 4 4 4 5 5 6 6 7 7 8 8 8 8 8 8 8 8 8 7 7 6 6 6 6 7 8 9 9 9 9 9 8 8 9
6 5 5 5 6 6 4 3 4 4 4 5 5 6 6 7 7 8 9 9 9 8 8 8 8 8 8 9 8 8 9 10 9 9 9 8 7 6 5 4 4 4 3 1 1 1 3 5 6 7 8 7 6 5 4 4 5 5 6 6 7 7 7 8 8 8 8 8 8 8 8 8 8 8 8 8 8 9 10 11 11 12 12 11 10 11 11
4 4 4 4 5 5 5 4 4 4 4 4 5 6 6 6 6 7 8 9 9 8 8 9 9 9 9 9 9 8 9 9 8 8 8 8 7 7 6 5 5 5 4 3 2 3 5 6 7 8 9 8 7 7 6 6 5 6 6 6 7 7 8 9 9 9 9 9 9 9 9 9 10 10 11 10 10 11 12 12 13 14 15 14 12 11 11
2 2 1 2 2 3 4 4 3 3 3 4 5 6 6 6 6 6 7 8 8 8 8 9 9 9 10 10 10 10 10 10 9 9 9 8 7 7 7 7 6 6 5 5 4 5 6 6 7 8 9 9 9 9 8 8 8 8 8 8 8 9 9 10 10 10 10 10 10 10 11 11 12 12 12 11 11 12 13 13 14 14 15 13 11 10 10
3 3 2 2 2 3 4 5 6 5 4 5 6 6 6 6 7 6 6 7 8 8 8 9 10 10 10 11 11 11 12 12 12 11 11 10 9 9 9 9 8 7 5 5 5 6 6 7 8 8 9 10 10 10 10 11 11 11 10 10 10 10 11 11 11 11 12 12 12 12 12 13 13 13 13 13 13 14 14 14 14 14 14 13 11 11 10
Wind_Direction
234 238 238 235 229 225 227 226 222 222 223 224 227 232 235 236 238 240 231 224 227 230 231 230 227 224 227 231 237 243 251 257 252 230 222 218 202 195 198 203 206 207 209 210 210 210 210 210 211 213 213 214 215 216 219 223 224 224 225 230 235 237 239 240 244 249 251 251 249 247 245 247 249 245 235 229 233 241 245 244 241 241 242 241 237 231 226
233 233 234 237 236 230 228 229 229 227 226 225 226 230 233 234 239 245 242 236 233 226 227 235 239 239 241 244 244 244 249 254 251 233 222 221 211 205 208 214 218 216 212 211 210 210 209 209 210 210 211 212 213 215 218 222 224 226 229 234 239 242 245 247 249 251 254 255 252 248 244 247 250 246 238 233 234 240 243 244 244 244 242 240 237 231 226
236 232 232 235 238 238 233 230 230 232 231 229 227 227 229 232 236 238 240 242 240 230 228 235 239 241 244 245 242 240 243 248 247 237 229 228 222 215 215 219 222 217 211 210 211 210 209 208 206 206 206 208 210 213 216 220 224 227 231 236 241 244 248 252 253 254 257 258 257 252 248 251 253 251 247 242 239 242 243 243 244 243 240 237 233 227 222
235 228 229 230 235 240 239 234 230 231 232 233 232 229 227 229 232 233 235 238 238 232 232 233 233 235 238 237 234 234 238 242 243 237 231 231 226 219 217 220 221 216 210 210 211 210 208 205 202 201 203 206 208 211 214 217 221 226 231 235 241 245 249 253 255 256 257 259 258 253 252 257 257 254 254 249 242 241 242 243 243 241 238 236 231 226 222
241 232 228 229 230 233 235 232 229 230 232 233 235 235 231 228 230 233 234 235 237 234 230 228 228 231 232 229 230 233 234 237 239 237 237 239 232 222 220 222 222 217 211 210 211 209 204 200 199 198 199 201 203 204 208 212 216 222 228 231 236 242 245 250 254 255 256 258 255 246 248 256 256 254 256 253 245 239 236 238 241 239 237 234 230 227 224
248 236 229 233 234 230 229 226 224 227 229 231 234 237 235 232 230 234 239 241 238 231 225 225 228 229 227 222 222 227 230 231 234 236 239 242 236 225 219 218 218 213 207 206 209 207 202 198 196 194 195 197 198 200 203 206 208 213 218 222 227 233 236 241 246 248 253 255 247 235 241 250 253 256 257 253 249 243 236 235 236 235 234 232 228 226 224
251 233 219 227 230 228 234 240 235 234 233 234 237 239 240 239 235 235 238 240 241 236 228 228 229 228 227 225 222 225 228 230 233 234 233 232 227 219 212 207 208 211 209 206 207 205 200 197 194 192 192 193 193 193 195 195 195 198 203 207 212 218 223 230 236 241 249 249 236 233 244 249 252 258 258 254 251 244 237 237 236 231 229 229 230 229 227
246 234 223 229 236 243 245 248 264 263 245 237 237 238 237 237 237 237 235 235 238 236 231 233 235 231 227 228 228 228 229 232 233 229 228 226 216 211 213 208 206 210 209 206 203 199 196 195 193 190 187 184 183 184 184 184 182 183 188 194 201 209 216 226 232 237 248 246 233 236 244 240 242 253 259 256 249 242 240 242 237 229 225 226 229 230 227
238 246 241 239 246 253 250 251 348 344 290 260 254 252 239 232 235 237 234 234 233 230 234 238 232 219 214 226 236 232 229 233 234 228 225 225 213 211 219 220 217 214 208 203 203 197 190 187 185 181 179 178 177 175 173 173 174 176 182 188 195 204 213 224 231 236 244 241 233 237 237 228 234 252 259 254 245 243 245 244 236 230 229 229 228 226 227
206 239 248 241 238 234 224 41 29 10 343 326 315 288 250 233 234 233 232 233 228 227 237 234 206 183 211 236 243 230 221 226 232 226 218 215 205 201 205 207 210 208 198 194 197 193 184 178 174 172 172 171 168 166 166 169 172 173 176 182 190 200 212 222 226 233 235 223 220 232 231 223 229 242 249 249 246 247 249 244 235 232 234 235 233 233 238
211 224 239 242 240 222 110 54 8 352 339 334 322 267 242 235 236 232 228 226 222 226 231 215 177 183 221 236 237 217 201 204 212 208 199 191 187 190 194 197 198 191 180 177 181 183 179 171 166 165 163 161 160 161 164 167 167 167 170 179 186 196 211 217 219 230 230 210 206 224 226 221 224 227 233 239 244 250 249 239 233 232 234 235 235 238 242
211 215 229 243 246 231 61 26 353 339 327 308 245 236 237 285 294 266 242 228 223 224 220 199 183 207 226 234 209 174 167 172 178 180 180 177 175 176 177 183 186 179 170 168 171 174 171 162 157 157 156 156 158 160 162 163 164 165 171 180 189 201 216 218 218 232 234 210 197 209 216 219 220 220 224 229 239 249 245 228 223 225 225 227 230 232 235
211 213 223 238 240 202 28 1 346 331 290 236 223 236 290 334 325 318 293 254 236 223 209 197 196 206 199 124 119 135 142 149 151 157 166 166 164 161 162 173 178 170 162 162 163 162 159 154 153 154 154 155 157 159 161 164 165 169 178 189 200 214 225 226 228 234 232 208 195 196 204 214 218 219 223 225 231 237 225 207 207 212 213 218 223 225 227
217 219 226 235 225 144 16 350 346 334 248 232 261 315 321 315 310 318 312 278 256 227 205 198 191 170 139 120 121 126 130 134 135 141 147 146 148 155 161 168 168 160 156 156 154 152 150 150 151 153 154 155 157 160 163 165 168 177 188 200 213 224 232 237 239 234 216 203 201 197 196 206 214 221 227 222 219 213 200 197 202 204 209 215 217 216 218
214 217 223 233 223 127 30 358 350 17 277 305 329 324 313 315 320 318 308 285 262 225 195 175 151 136 130 126 123 120 119 121 123 126 129 131 136 146 152 156 156 153 150 148 145 144 146 147 149 151 154 156 157 160 163 167 175 188 200 211 222 230 238 245 243 228 209 206 209 205 200 200 206 216 218 208 202 195 194 200 204 206 210 212 209 206 212
212 219 217 222 187 85 61 43 34 333 315 314 318 316 312 324 333 329 346 352 220 190 160 140 131 126 122 120 119 117 115 113 112 112 114 117 121 128 137 144 147 146 142 139 139 140 142 145 147 149 152 158 161 164 167 174 187 201 212 220 229 237 242 246 242 228 216 212 208 204 201 197 196 202 201 193 189 192 197 202 204 203 203 201 200 203 213
212 238 218 79 70 77 80 77 58 350 327 317 312 317 332 359 17 42 73 90 129 146 137 128 123 120 116 115 113 110 108 106 107 110 113 115 118 122 128 133 136 137 135 133 135 136 138 143 148 148 153 163 168 169 174 187 198 208 216 222 232 238 234 234 236 226 213 209 203 199 200 196 188 191 194 189 188 195 202 202 198 196 194 195 198 203 208
140 74 69 77 72 75 80 75 56 21 355 344 340 349 24 67 77 76 81 92 102 115 123 122 118 114 111 108 105 103 101 99 103 108 111 112 114 119 123 125 128 131 130 131 133 135 138 142 147 151 161 173 180 182 188 197 202 204 206 208 231 241 228 226 236 225 204 195 192 193 197 194 186 189 193 190 191 199 204 199 192 190 190 192 196 201 213
178 137 79 73 60 65 73 68 51 27 8 3 8 22 43 68 80 77 75 81 89 92 96 103 105 104 102 99 97 97 96 95 99 106 109 109 112 117 120 122 125 128 129 132 136 139 141 144 149 158 170 181 189 191 191 189 185 179 177 200 248 239 189 182 217 211 194 189 187 187 190 189 186 190 193 195 201 205 200 195 194 192 192 198 204 212 231
148 92 70 66 59 61 66 66 51 19 5 13 25 40 53 60 71 77 73 67 65 65 66 74 82 85 87 88 87 88 90 94 99 103 106 107 109 112 114 117 122 126 128 130 134 140 145 150 158 168 175 182 187 184 175 171 165 156 153 186 262 177 147 149 177 186 186 187 185 182 185 188 193 196 196 201 209 209 201 199 199 197 197 205 216 226 244
118 99 105 103 84 64 59 61 42 355 351 16 32 40 49 51 60 73 77 70 61 56 56 63 69 69 70 76 81 82 84 90 96 102 105 106 107 110 113 116 121 125 128 130 134 139 144 150 162 170 172 174 175 171 167 161 151 147 148 134 126 140 140 146 166 171 178 184 178 179 192 197 197 199 201 203 203 202 204 203 203 203 204 210 226 239 250
137 104 140 133 105 69 64 73 52 339 349 21 36 39 43 43 49 64 73 73 70 64 62 67 72 68 65 71 79 81 81 84 91 99 105 107 108 110 113 116 118 120 123 127 132 136 139 148 161 166 167 175 175 168 163 153 144 150 147 128 126 138 142 152 166 166 173 182 177 181 199 206 203 202 206 206 198 198 207 212 213 213 214 222 240 243 232
45 37 130 122 74 56 76 100 145 289 3 31 41 44 46 43 44 55 66 69 67 63 61 67 74 74 71 75 79 80 79 83 90 96 101 105 108 109 112 115 117 117 119 122 128 134 139 147 159 166 171 177 169 159 155 147 142 145 139 131 134 142 147 165 181 172 169 183 187 190 198 203 199 197 202 206 200 198 205 213 216 217 219 231 242 231 204
14 15 140 128 96 86 82 88 136 176 91 51 48 52 57 52 46 49 58 63 60 56 56 60 66 71 74 78 81 80 79 83 90 95 99 103 106 108 112 118 120 122 128 132 138 145 147 151 161 165 165 164 158 156 153 146 143 143 137 133 139 145 153 173 182 170 165 178 189 195 195 188 184 188 191 199 201 193 190 199 209 214 217 222 222 207 194
75 77 120 119 107 102 98 86 85 111 142 125 62 58 67 69 61 55 55 59 59 56 52 54 62 71 74 75 78 79 79 82 89 94 97 101 103 106 113 121 126 133 138 139 142 149 154 159 167 169 166 164 161 159 153 146 147 148 142 139 145 150 156 167 164 156 162 172 173 183 192 185 179 179 181 196 211 203 192 194 199 201 200 197 190 187 191
94 120 127 117 107 103 106 99 84 85 107 124 109 85 76 72 68 63 58 58 60 58 50 48 55 65 71 71 72 74 75 79 85 90 92 93 95 99 106 113 121 129 130 128 134 148 158 165 170 168 165 164 162 159 154 152 154 155 153 153 154 154 154 155 150 151 163 172 171 178 186 182 177 178 189 207 214 201 186 184 184 182 181 180 179 183 190
72 92 110 107 93 78 76 79 78 82 90 96 98 95 86 74 68 65 61 59 59 56 50 45 44 49 58 62 63 64 66 69 76 82 84 82 78 80 87 94 100 109 117 121 136 157 163 164 163 159 159 164 167 165 161 159 161 164 163 160 157 154 154 152 150 156 168 176 180 184 184 181 182 190 198 200 190 176 171 174 176 178 180 180 180 184 191
74 73 81 87 77 59 58 66 76 85 90 87 84 86 89 84 76 70 65 60 57 52 47 41 39 43 47 49 52 54 51 49 52 57 61 62 58 57 66 76 77 85 106 123 148 175 180 175 165 156 163 174 177 174 170 166 167 171 171 164 156 156 159 155 149 159 179 193 195 192 192 195 194 191 188 181 172 169 170 172 176 183 186 184 186 191 194
74 72 73 76 75 72 74 75 70 69 74 75 71 71 77 79 73 67 63 60 57 55 48 39 39 45 46 43 47 47 37 31 37 40 37 37 34 16 39 67 67 65 76 104 138 181 195 193 177 161 167 180 183 182 178 173 173 177 176 168 158 155 161 164 172 196 221 230 219 206 202 201 193 184 180 177 173 173 174 173 178 189 193 192 196 200 201
75 77 73 69 71 75 75 67 54 49 56 62 59 52 52 57 58 55 52 50 47 45 37 26 27 32 30 27 33 34 26 21 28 34 31 20 345 301 291 60 74 68 68 88 132 190 208 199 187 181 182 187 188 186 183 181 183 185 184 182 180 180 184 194 213 221 220 225 222 211 203 197 190 184 182 179 177 177 179 181 187 194 198 199 201 206 213
81 80 75 69 64 62 63 60 51 45 48 53 50 43 40 42 43 39 34 29 23 14 5 7 13 11 4 1 2 0 357 354 353 358 6 360 339 315 302 309 60 86 233 222 216 224 227 212 199 199 198 194 191 189 187 186 189 191 191 193 199 206 213 224 232 214 202 206 210 204 196 191 188 186 184 182 180 180 183 187 190 194 201 207 207 212 223
85 77 74 72 64 49 44 52 51 42 31 28 31 34 36 36 31 20 13 12 9 358 354 4 11 4 357 359 360 356 356 357 356 2 9 2 339 314 300 295 288 272 260 248 236 232 228 215 208 211 208 198 191 191 192 190 191 194 195 197 204 215 223 224 212 197 193 195 196 194 188 185 185 185 182 182 184 184 186 190 194 199 208 211 203 204 221
93 85 83 84 73 35 6 23 37 29 13 6 5 10 21 26 18 4 359 3 6 3 3 8 8 2 356 358 4 10 12 14 18 19 14 6 348 323 303 290 278 268 260 253 249 248 239 223 218 217 209 194 188 191 193 190 192 197 198 197 201 210 211 202 192 188 185 180 181 183 183 182 184 186 185 185 186 187 188 190 194 200 204 199 191 199 223
101 129 153 140 129 294 315 355 20 24 22 12 359 359 12 19 8 352 352 3 17 23 18 10 6 5 3 5 12 15 15 17 20 15 7 5 360 336 312 296 285 275 262 248 238 229 218 217 216 213 206 196 190 191 193 191 194 200 202 200 201 202 198 192 186 180 173 173 178 184 187 185 185 188 192 192 187 184 186 188 189 195 197 192 193 211 229
177 194 185 180 198 231 269 335 357 5 19 25 13 12 17 14 358 346 351 8 24 26 19 15 14 17 15 14 14 13 11 12 11 5 2 4 359 339 325 318 306 298 285 260 240 221 208 213 207 198 200 203 199 199 203 199 194 198 202 202 199 190 182 180 176 169 167 173 179 181 183 183 181 182 188 189 185 184 188 191 193 198 201 199 208 224 228
156 171 173 176 186 209 310 344 356 3 3 1 4 6 6 6 1 356 359 13 22 24 23 22 22 23 21 17 13 10 8 7 5 3 3 2 356 354 1 355 346 358 1 300 252 210 204 219 198 179 181 191 194 197 200 192 186 193 198 193 181 172 167 165 165 164 164 168 171 174 181 187 186 181 180 182 183 187 194 199 201 205 210 211 219 232 236
128 137 150 154 137 60 20 16 21 15 356 353 358 360 1 6 5 6 13 20 21 21 24 25 24 22 21 19 17 14 11 10 9 8 4 360 3 13 14 4 6 25 31 354 294 152 199 209 188 167 163 172 182 187 183 176 178 190 190 176 167 165 164 161 163 166 169 176 185 194 200 197 186 177 178 185 189 191 200 210 213 214 216 216 218 228 237
111 110 110 103 81 62 57 50 42 35 26 33 37 26 20 19 18 20 26 26 22 23 29 31 28 25 25 26 26 23 19 21 24 19 11 11 23 31 29 18 26 54 96 135 121 139 186 186 175 164 160 166 171 173 171 167 169 174 171 165 162 163 162 164 172 179 182 188 194 196 190 181 175 175 181 191 194 196 208 222 225 221 220 218 213 216 220
93 93 95 92 84 80 73 58 49 49 53 60 70 65 50 40 36 37 35 28 23 29 36 36 33 32 34 36 37 32 27 28 30 29 26 28 34 40 39 26 22 135 139 133 131 143 156 158 158 155 154 156 158 160 163 165 165 163 161 160 160 159 158 164 174 177 176 179 181 177 172 175 179 178 177 179 182 191 205 212 213 213 223 228 222 217 219
93 92 91 86 83 83 79 69 63 61 59 61 62 55 41 33 33 37 36 28 27 35 39 39 38 39 40 41 42 38 34 33 32 31 35 44 48 48 46 36 33 59 96 114 129 135 133 134 140 141 142 146 153 159 164 164 162 159 159 158 155 154 156 161 165 168 171 177 179 176 171 168 165 163 164 168 171 180 195 201 200 204 221 231 230 227 227
99 97 94 87 81 78 76 73 71 71 70 66 57 44 35 31 31 33 35 32 34 37 40 41 42 43 42 41 41 38 36 37 34 31 38 51 54 52 54 49 42 49 79 123 144 140 137 139 138 135 140 147 153 159 163 160 156 163 171 166 154 151 157 161 164 167 168 168 167 164 161 157 156 156 159 165 171 180 192 202 209 216 224 232 236 238 238
96 92 88 82 76 73 72 72 72 72 71 70 63 53 48 47 45 43 42 41 40 42 43 43 43 43 41 40 39 37 36 36 35 34 40 48 51 53 58 58 51 65 103 121 130 141 144 144 142 146 157 164 164 164 164 156 147 151 160 156 148 149 157 158 158 161 163 162 163 165 166 168 169 167 166 172 183 196 206 216 229 236 239 241 243 244 245
93 88 83 78 73 69 66 66 67 68 69 67 64 59 56 56 56 55 52 48 45 44 44 44 44 43 43 44 45 43 40 36 35 36 42 51 58 61 62 60 64 94 109 105 103 109 114 120 142 164 171 167 157 150 148 147 143 143 148 150 152 157 160 158 159 163 164 164 167 170 172 175 179 182 185 191 202 214 224 237 247 250 251 252 251 250 249
93 87 81 75 71 67 65 62 60 61 61 61 58 54 52 52 52 51 49 47 44 42 41 42 41 40 39 40 41 41 39 38 36 36 41 49 53 55 61 66 79 104 112 107 102 104 106 113 133 146 148 147 143 137 135 141 148 150 152 155 157 159 160 162 165 168 167 167 170 173 175 178 182 185 187 191 196 206 221 235 250 257 259 260 259 256 253
94 89 83 77 71 67 65 60 57 57 59 58 55 51 48 48 48 47 46 45 42 38 37 38 36 33 31 30 29 30 35 39 38 37 40 44 44 43 50 61 73 116 132 119 99 96 118 136 141 141 143 144 140 134 134 147 156 156 158 161 162 163 166 167 168 171 173 175 176 176 177 179 180 181 182 185 189 198 209 223 251 270 270 270 268 263 258
92 84 78 75 71 68 64 60 57 57 58 57 53 48 44 42 42 41 40 39 38 36 35 35 33 31 30 27 26 28 31 35 36 36 36 36 35 35 36 43 61 141 159 137 86 71 141 158 156 156 154 147 136 126 134 155 158 155 161 167 169 171 173 174 174 178 181 180 177 177 179 182 185 188 192 195 201 216 233 249 265 270 265 266 274 273 267
72 70 67 67 67 66 62 57 55 56 55 53 50 46 40 35 34 33 31 30 30 31 33 33 31 30 29 28 27 26 25 24 29 34 32 27 26 29 30 34 50 140 174 157 64 83 154 158 160 163 161 150 137 132 151 166 163 163 171 173 173 176 179 178 177 179 181 180 181 184 188 192 196 201 205 212 225 245 258 266 273 272 267 266 271 274 273
64 70 67 58 51 53 56 57 57 53 47 43 41 39 34 31 30 29 27 26 24 24 26 28 26 23 24 26 27 25 22 19 19 18 16 12 12 15 20 21 16 357 333 352 26 147 177 171 169 175 176 167 156 156 172 177 173 175 178 180 180 183 184 183 184 187 189 191 194 198 200 204 211 218 223 234 253 266 270 272 277 280 277 271 269 271 276
67 76 75 60 50 48 52 60 61 51 39 31 28 24 19 19 26 30 29 28 27 27 26 26 23 19 17 16 15 13 13 14 13 9 6 6 6 3 2 3 1 353 346 346 342 294 236 202 192 195 198 195 187 189 197 196 190 189 190 190 191 192 192 193 197 202 206 208 211 213 215 220 229 238 244 251 262 269 271 273 277 277 272 267 269 273 277
66 68 62 52 44 41 40 43 49 46 33 18 11 5 0 4 17 26 25 21 20 20 20 21 20 18 14 11 7 1 357 357 356 352 351 354 357 356 354 355 355 350 342 331 307 280 258 234 219 216 218 218 216 215 215 211 208 207 207 205 204 206 210 212 215 217 219 221 222 225 227 231 240 246 250 255 263 269 270 272 275 274 269 268 270 273 274
33 40 26 23 27 28 24 16 8 2 2 359 354 350 352 355 1 8 10 6 3 3 3 3 4 4 3 1 1 358 353 348 344 339 335 333 331 328 330 334 335 333 328 316 293 276 265 251 239 234 233 233 232 230 230 228 224 221 222 221 219 221 226 230 230 231 231 230 231 232 235 240 246 250 251 256 265 271 272 274 277 277 274 272 270 268 268
3 336 304 315 348 354 346 336 329 327 336 341 337 335 338 338 338 344 354 356 351 348 346 342 341 344 348 351 351 350 349 347 344 338 333 329 322 312 308 308 307 305 303 296 284 275 270 262 253 250 249 246 243 243 244 243 238 234 233 232 229 230 234 236 237 238 238 238 238 239 242 245 248 251 254 260 267 271 271 273 275 275 274 272 268 264 264
Height
1404 1401 1400 1398 1400 1403 1405 1405 1407 1408 1409 1410 1412 1413 1412 1412 1420 1423 1417 1416 1421 1418 1410 1406 1405 1405 1406 1406 1406 1407 1408 1409 1410 1411 1412 1414 1415 1417 1418 1420 1422 1424 1425 1426 1429 1432 1435 1439 1442 1445 1449 1452 1454 1457 1460 1462 1466 1468 1471 1472 1474 1477 1479 1481 1483 1484 1486 1488 1490 1493 1494 1495 1496 1499 1501 1503 1510 1515 1514 1512 1510 1510 1512 1514 1514 1516 1517
1402 1399 1398 1395 1395 1398 1400 1400 1401 1402 1403 1404 1407 1408 1407 1408 1411 1412 1412 1414 1414 1409 1406 1403 1399 1399 1401 1402 1404 1404 1406 1408 1409 1409 1409 1411 1413 1414 1414 1415 1417 1421 1423 1424 1426 1429 1432 1436 1439 1442 1445 1448 1450 1454 1457 1459 1463 1465 1468 1470 1472 1474 1476 1478 1480 1482 1483 1485 1487 1489 1491 1491 1492 1495 1496 1499 1505 1509 1507 1506 1505 1506 1508 1509 1510 1510 1512
1401 1395 1393 1393 1394 1394 1395 1396 1395 1395 1397 1398 1400 1401 1402 1405 1408 1407 1408 1412 1409 1401 1398 1397 1397 1398 1399 1399 1400 1402 1405 1406 1406 1405 1406 1408 1409 1410 1411 1411 1413 1417 1420 1422 1424 1426 1429 1432 1435 1438 1441 1444 1447 1451 1454 1457 1460 1462 1465 1467 1469 1471 1473 1475 1478 1479 1480 1482 1484 1485 1487 1487 1489 1490 1491 1494 1499 1501 1500 1500 1500 1501 1504 1506 1506 1506 1509
1403 1392 1392 1393 1392 1392 1393 1393 1392 1392 1394 1395 1394 1393 1394 1398 1402 1405 1407 1408 1405 1398 1394 1394 1394 1395 1395 1395 1397 1400 1402 1402 1402 1402 1402 1404 1405 1406 1407 1408 1409 1412 1415 1417 1419 1421 1425 1429 1432 1435 1438 1441 1445 1448 1451 1454 1457 1460 1462 1464 1467 1469 1471 1473 1475 1476 1478 1479 1480 1482 1483 1484 1485 1486 1487 1489 1493 1494 1494 1495 1496 1497 1500 1502 1503 1503 1507
1404 1393 1390 1390 1391 1400 1400 1392 1388 1389 1389 1390 1389 1387 1386 1387 1392 1399 1401 1397 1394 1391 1390 1392 1393 1392 1391 1392 1394 1397 1398 1397 1398 1398 1399 1401 1402 1403 1404 1404 1405 1407 1410 1412 1415 1418 1422 1425 1429 1432 1436 1439 1442 1445 1449 1452 1455 1457 1460 1462 1464 1466 1468 1470 1471 1473 1475 1475 1477 1478 1479 1481 1482 1482 1483 1485 1487 1489 1489 1490 1493 1494 1495 1497 1499 1502 1505
1406 1394 1388 1393 1402 1409 1398 1379 1375 1379 1381 1384 1387 1385 1382 1380 1381 1384 1385 1384 1384 1384 1385 1388 1389 1387 1386 1388 1390 1393 1393 1393 1394 1394 1396 1398 1399 1401 1401 1401 1402 1405 1408 1411 1413 1416 1420 1424 1427 1431 1434 1437 1441 1444 1447 1450 1452 1455 1457 1459 1462 1464 1466 1467 1468 1470 1471 1472 1474 1475 1476 1477 1478 1478 1479 1481 1483 1485 1486 1487 1489 1490 1492 1493 1496 1500 1503
1405 1394 1396 1413 1417 1402 1382 1371 1369 1371 1373 1375 1379 1380 1377 1376 1376 1377 1379 1381 1380 1380 1380 1381 1381 1382 1383 1385 1386 1388 1389 1389 1390 1391 1392 1394 1396 1398 1399 1400 1400 1402 1405 1408 1410 1414 1418 1421 1424 1428 1432 1435 1439 1442 1445 1447 1450 1452 1455 1457 1459 1461 1463 1464 1465 1467 1468 1470 1472 1472 1472 1473 1474 1475 1476 1477 1479 1481 1483 1484 1485 1486 1489 1491 1493 1497 1501
1404 1402 1409 1418 1408 1386 1374 1375 1374 1373 1374 1374 1377 1380 1376 1372 1373 1374 1377 1378 1377 1376 1376 1376 1377 1379 1381 1382 1383 1384 1386 1386 1386 1388 1389 1390 1393 1394 1396 1397 1398 1400 1403 1406 1409 1412 1416 1419 1422 1426 1430 1433 1437 1439 1442 1445 1447 1450 1452 1454 1456 1458 1460 1461 1463 1464 1466 1467 1469 1469 1469 1470 1471 1472 1473 1474 1476 1478 1480 1481 1482 1484 1486 1489 1491 1495 1499
1406 1413 1415 1406 1395 1388 1385 1383 1381 1380 1381 1378 1380 1383 1375 1366 1366 1369 1371 1373 1373 1373 1372 1372 1375 1377 1380 1382 1381 1380 1381 1382 1382 1384 1386 1388 1390 1391 1392 1395 1396 1398 1401 1405 1408 1411 1414 1418 1421 1425 1428 1431 1434 1436 1440 1443 1445 1448 1450 1452 1454 1456 1458 1459 1461 1462 1464 1465 1466 1466 1467 1468 1469 1470 1471 1471 1473 1475 1476 1477 1479 1481 1484 1486 1489 1492 1495
1403 1415 1421 1410 1401 1399 1394 1388 1384 1383 1383 1380 1379 1384 1378 1366 1360 1362 1364 1367 1369 1369 1370 1371 1373 1377 1383 1384 1378 1374 1376 1378 1378 1380 1383 1385 1387 1388 1389 1392 1393 1395 1399 1402 1407 1411 1413 1416 1419 1422 1426 1429 1432 1435 1438 1441 1444 1446 1448 1450 1452 1454 1456 1457 1459 1460 1461 1463 1464 1464 1465 1467 1468 1469 1469 1470 1470 1472 1473 1474 1476 1479 1482 1485 1488 1491 1493
1400 1411 1422 1416 1404 1397 1392 1387 1384 1383 1383 1380 1380 1388 1384 1366 1357 1357 1358 1361 1364 1364 1366 1369 1372 1378 1385 1382 1372 1368 1372 1374 1375 1377 1380 1382 1384 1385 1386 1389 1391 1393 1395 1398 1404 1408 1411 1413 1416 1420 1424 1427 1430 1434 1436 1439 1442 1443 1446 1449 1451 1452 1454 1455 1456 1458 1458 1460 1462 1463 1464 1465 1466 1467 1468 1468 1469 1469 1471 1472 1475 1478 1481 1484 1487 1489 1491
1398 1404 1411 1406 1396 1390 1388 1385 1383 1383 1382 1381 1389 1398 1386 1365 1358 1358 1354 1355 1358 1358 1361 1366 1370 1374 1378 1374 1367 1366 1369 1371 1373 1376 1378 1380 1381 1382 1384 1387 1389 1391 1393 1395 1400 1405 1408 1411 1414 1418 1422 1426 1429 1432 1435 1438 1440 1441 1444 1447 1448 1450 1451 1453 1454 1455 1456 1458 1459 1461 1462 1464 1465 1466 1467 1467 1467 1468 1469 1472 1475 1478 1480 1483 1486 1487 1488
1394 1398 1402 1399 1391 1387 1386 1383 1381 1381 1382 1385 1394 1394 1379 1367 1366 1363 1358 1356 1355 1355 1358 1362 1365 1367 1368 1368 1367 1368 1369 1370 1372 1375 1377 1379 1380 1381 1382 1385 1388 1391 1392 1395 1399 1403 1407 1410 1413 1417 1421 1424 1427 1431 1433 1435 1437 1439 1442 1444 1445 1447 1449 1450 1452 1453 1454 1456 1457 1459 1460 1462 1463 1464 1465 1466 1467 1467 1469 1472 1474 1476 1479 1481 1483 1485 1486
1387 1389 1394 1396 1392 1386 1384 1381 1380 1382 1387 1390 1388 1381 1374 1371 1368 1365 1363 1362 1358 1357 1358 1359 1361 1364 1365 1367 1368 1369 1370 1371 1372 1374 1377 1379 1380 1380 1381 1385 1389 1391 1393 1396 1400 1404 1407 1411 1414 1417 1420 1423 1426 1429 1431 1433 1435 1437 1439 1441 1443 1445 1447 1448 1450 1451 1452 1454 1455 1456 1458 1459 1461 1461 1462 1464 1466 1467 1469 1471 1473 1475 1477 1479 1481 1482 1484
1384 1389 1394 1398 1393 1385 1380 1379 1381 1385 1389 1387 1382 1377 1374 1372 1368 1365 1365 1363 1361 1361 1360 1359 1361 1363 1364 1366 1368 1369 1371 1372 1373 1375 1378 1378 1379 1380 1382 1387 1390 1392 1394 1398 1402 1405 1408 1412 1415 1418 1421 1424 1426 1428 1430 1432 1434 1436 1438 1439 1441 1442 1444 1446 1448 1449 1450 1451 1453 1454 1456 1457 1458 1459 1460 1462 1464 1466 1468 1470 1472 1473 1475 1476 1478 1480 1482
1381 1387 1388 1387 1383 1377 1376 1379 1384 1388 1389 1386 1382 1379 1374 1371 1369 1368 1365 1363 1364 1363 1362 1362 1363 1363 1364 1367 1368 1369 1371 1373 1375 1377 1378 1379 1380 1382 1384 1388 1391 1394 1397 1400 1403 1406 1409 1413 1416 1419 1421 1424 1426 1427 1429 1431 1433 1436 1437 1438 1439 1440 1442 1444 1445 1446 1448 1450 1451 1453 1454 1455 1457 1458 1459 1461 1463 1465 1467 1468 1470 1471 1473 1474 1476 1478 1480
1374 1377 1377 1376 1376 1375 1375 1378 1383 1387 1388 1386 1384 1380 1376 1373 1372 1369 1366 1366 1366 1365 1365 1365 1364 1364 1365 1367 1368 1370 1372 1374 1376 1378 1379 1381 1383 1386 1388 1392 1395 1398 1400 1403 1406 1408 1411 1414 1416 1419 1422 1425 1426 1427 1428 1431 1433 1435 1436 1437 1438 1439 1440 1442 1443 1445 1446 1448 1450 1452 1453 1454 1456 1457 1459 1460 1462 1464 1465 1467 1468 1469 1471 1473 1475 1477 1478
1375 1377 1377 1378 1380 1378 1376 1377 1382 1386 1388 1387 1385 1382 1379 1377 1374 1371 1369 1368 1368 1369 1370 1368 1366 1365 1366 1367 1370 1372 1373 1376 1378 1379 1381 1384 1387 1390 1393 1396 1399 1401 1402 1404 1407 1409 1412 1415 1416 1419 1422 1425 1425 1426 1428 1430 1432 1434 1434 1435 1436 1437 1439 1440 1442 1444 1446 1448 1450 1451 1452 1454 1455 1457 1458 1459 1461 1462 1463 1465 1466 1468 1469 1471 1473 1475 1476
1378 1381 1381 1380 1382 1382 1377 1377 1382 1387 1390 1389 1387 1384 1382 1379 1376 1372 1370 1371 1373 1375 1376 1373 1368 1366 1367 1369 1372 1374 1376 1378 1380 1381 1383 1386 1389 1392 1395 1397 1400 1402 1403 1405 1407 1409 1411 1414 1417 1419 1422 1423 1424 1426 1427 1429 1431 1432 1433 1434 1435 1437 1438 1439 1441 1443 1445 1447 1449 1451 1453 1454 1455 1456 1457 1459 1460 1461 1462 1463 1464 1466 1468 1470 1472 1473 1474
1378 1383 1385 1384 1385 1384 1378 1377 1385 1392 1394 1392 1389 1386 1384 1381 1376 1371 1370 1373 1376 1378 1379 1376 1371 1369 1371 1374 1375 1377 1379 1381 1383 1384 1387 1389 1392 1395 1397 1400 1402 1403 1405 1407 1408 1409 1411 1413 1417 1420 1422 1423 1424 1426 1427 1428 1429 1430 1432 1433 1434 1436 1437 1439 1440 1442 1445 1447 1449 1451 1453 1454 1455 1456 1457 1458 1459 1460 1461 1462 1463 1464 1466 1469 1470 1472 1473
1380 1384 1386 1385 1386 1385 1381 1381 1389 1397 1397 1394 1391 1388 1386 1384 1379 1373 1372 1377 1381 1382 1382 1379 1374 1374 1377 1379 1380 1382 1384 1385 1386 1387 1389 1391 1394 1397 1399 1402 1404 1406 1408 1409 1410 1411 1413 1415 1418 1420 1422 1423 1425 1425 1427 1428 1428 1430 1431 1432 1433 1435 1437 1439 1440 1442 1444 1446 1447 1450 1451 1452 1453 1454 1455 1456 1457 1458 1459 1460 1461 1463 1465 1467 1469 1470 1471
1382 1385 1386 1386 1388 1390 1388 1388 1394 1400 1399 1396 1393 1389 1387 1387 1385 1381 1379 1383 1387 1388 1387 1385 1382 1381 1383 1384 1385 1386 1388 1390 1390 1390 1392 1394 1397 1399 1401 1404 1406 1407 1409 1411 1412 1414 1415 1417 1418 1420 1421 1422 1424 1425 1426 1427 1428 1429 1430 1431 1433 1435 1437 1439 1441 1442 1444 1445 1447 1448 1449 1450 1451 1453 1454 1455 1456 1457 1458 1459 1461 1462 1464 1465 1467 1468 1469
1385 1386 1387 1388 1390 1392 1393 1395 1399 1401 1400 1398 1395 1392 1391 1392 1392 1389 1387 1388 1392 1393 1392 1390 1389 1387 1388 1389 1390 1391 1393 1394 1394 1395 1396 1397 1399 1401 1403 1405 1407 1409 1410 1412 1414 1415 1416 1417 1418 1419 1420 1422 1423 1425 1426 1427 1428 1429 1429 1431 1433 1435 1438 1440 1441 1442 1444 1445 1446 1447 1448 1449 1450 1452 1453 1454 1455 1456 1457 1458 1459 1461 1462 1463 1465 1466 1467
1388 1389 1389 1390 1392 1395 1397 1399 1400 1401 1401 1400 1398 1396 1395 1395 1396 1395 1393 1393 1395 1397 1397 1395 1394 1393 1393 1393 1394 1395 1396 1397 1397 1398 1399 1400 1401 1403 1404 1406 1408 1409 1411 1413 1414 1415 1416 1417 1418 1419 1421 1422 1423 1424 1425 1426 1427 1428 1430 1432 1434 1436 1438 1439 1440 1441 1443 1444 1445 1446 1447 1448 1449 1450 1451 1452 1453 1454 1455 1456 1458 1459 1461 1462 1463 1465 1466
1390 1391 1392 1392 1394 1397 1400 1401 1402 1402 1400 1399 1400 1401 1400 1399 1400 1399 1397 1396 1398 1400 1402 1401 1399 1398 1397 1397 1397 1398 1399 1399 1400 1400 1401 1401 1403 1404 1406 1407 1408 1409 1411 1412 1413 1414 1415 1417 1419 1420 1421 1421 1422 1423 1424 1425 1427 1429 1430 1432 1434 1436 1437 1438 1439 1441 1443 1443 1445 1446 1446 1447 1449 1449 1450 1451 1452 1453 1454 1455 1456 1458 1459 1461 1462 1463 1464
1392 1394 1394 1394 1396 1400 1401 1403 1404 1404 1400 1399 1402 1404 1404 1403 1402 1402 1401 1401 1402 1404 1406 1406 1403 1401 1400 1400 1401 1401 1402 1402 1402 1402 1403 1404 1405 1406 1407 1408 1409 1409 1410 1410 1411 1414 1416 1418 1419 1420 1420 1421 1422 1423 1424 1425 1427 1428 1430 1431 1433 1435 1436 1437 1438 1440 1442 1443 1444 1445 1446 1447 1448 1449 1450 1451 1451 1452 1453 1454 1455 1457 1458 1459 1461 1462 1463
1396 1397 1396 1396 1399 1402 1403 1404 1406 1406 1403 1402 1404 1405 1406 1406 1406 1405 1404 1404 1405 1406 1407 1408 1407 1405 1403 1403 1403 1404 1404 1405 1405 1405 1405 1405 1407 1408 1409 1408 1408 1409 1408 1409 1412 1416 1417 1418 1418 1419 1420 1421 1422 1422 1424 1425 1426 1428 1429 1430 1432 1433 1435 1436 1438 1439 1441 1442 1443 1445 1445 1446 1447 1448 1449 1450 1450 1451 1452 1453 1455 1456 1457 1458 1459 1460 1461
1399 1399 1399 1400 1403 1405 1405 1406 1407 1407 1406 1406 1406 1407 1408 1409 1408 1407 1406 1406 1407 1407 1408 1410 1410 1407 1405 1405 1406 1406 1406 1407 1407 1406 1404 1405 1407 1409 1409 1409 1409 1409 1409 1411 1414 1416 1417 1417 1418 1418 1419 1420 1421 1422 1424 1425 1426 1427 1428 1430 1431 1433 1434 1436 1437 1439 1440 1441 1442 1444 1445 1445 1446 1448 1448 1449 1450 1451 1451 1452 1454 1454 1455 1457 1458 1458 1459
1402 1402 1403 1405 1407 1407 1407 1407 1408 1408 1408 1408 1409 1410 1410 1410 1409 1408 1408 1409 1410 1411 1412 1413 1412 1410 1408 1409 1408 1408 1408 1409 1408 1407 1406 1407 1409 1411 1411 1410 1410 1411 1411 1413 1414 1415 1416 1416 1417 1418 1419 1420 1420 1422 1423 1424 1426 1427 1428 1429 1431 1433 1434 1435 1437 1438 1439 1440 1441 1443 1444 1445 1446 1447 1448 1449 1450 1450 1451 1452 1453 1454 1454 1455 1456 1457 1457
1407 1406 1407 1409 1410 1410 1409 1409 1410 1409 1409 1410 1410 1411 1411 1410 1409 1409 1409 1410 1412 1413 1413 1413 1412 1410 1409 1409 1409 1409 1410 1410 1410 1410 1410 1411 1411 1411 1410 1410 1411 1411 1412 1413 1413 1414 1415 1415 1416 1418 1419 1419 1419 1421 1422 1424 1425 1426 1427 1429 1430 1431 1432 1434 1435 1436 1438 1439 1440 1441 1443 1444 1445 1446 1447 1448 1449 1450 1451 1452 1453 1453 1453 1454 1455 1455 1456
1410 1410 1410 1411 1412 1412 1411 1412 1413 1413 1413 1413 1413 1413 1413 1412 1411 1412 1412 1412 1412 1413 1413 1412 1410 1410 1409 1409 1409 1409 1409 1409 1409 1410 1410 1410 1409 1409 1409 1409 1410 1410 1411 1411 1412 1413 1414 1414 1416 1417 1418 1418 1419 1420 1421 1422 1424 1425 1426 1428 1429 1430 1431 1432 1433 1434 1436 1437 1438 1440 1441 1443 1444 1445 1446 1447 1448 1450 1451 1451 1452 1452 1453 1453 1454 1455 1455
1412 1412 1412 1413 1414 1414 1414 1414 1415 1415 1415 1415 1415 1415 1414 1414 1414 1414 1414 1414 1414 1414 1413 1412 1410 1410 1410 1410 1409 1409 1408 1408 1408 1408 1408 1408 1408 1407 1408 1408 1409 1409 1409 1410 1410 1411 1412 1413 1414 1415 1416 1417 1418 1418 1419 1421 1422 1423 1425 1426 1427 1428 1429 1430 1432 1433 1434 1435 1437 1439 1440 1442 1443 1444 1445 1446 1448 1449 1450 1450 1451 1451 1451 1452 1453 1454 1454
1415 1415 1415 1416 1417 1418 1417 1417 1416 1416 1417 1417 1416 1416 1415 1416 1416 1416 1416 1416 1416 1415 1414 1413 1412 1412 1412 1411 1410 1408 1407 1407 1407 1406 1406 1406 1406 1406 1406 1407 1407 1408 1408 1409 1409 1410 1411 1412 1413 1414 1414 1415 1416 1417 1418 1419 1420 1422 1423 1424 1425 1426 1428 1429 1431 1432 1433 1435 1437 1438 1439 1441 1442 1442 1444 1445 1446 1448 1449 1449 1450 1450 1450 1451 1452 1452 1452
1418 1418 1418 1419 1419 1419 1419 1419 1418 1418 1418 1419 1419 1418 1418 1419 1419 1419 1419 1419 1418 1417 1416 1415 1414 1413 1412 1410 1408 1407 1406 1406 1405 1405 1405 1404 1405 1405 1406 1406 1407 1407 1407 1408 1408 1409 1410 1411 1412 1413 1413 1414 1415 1416 1417 1418 1419 1420 1421 1423 1424 1425 1427 1428 1430 1432 1434 1435 1436 1438 1439 1440 1441 1442 1443 1444 1445 1447 1448 1448 1449 1449 1449 1450 1450 1450 1449
1419 1419 1420 1420 1420 1419 1419 1419 1419 1419 1419 1419 1420 1420 1420 1421 1421 1421 1421 1419 1417 1416 1415 1414 1412 1411 1409 1408 1406 1405 1405 1405 1405 1404 1404 1404 1404 1405 1405 1406 1407 1407 1407 1407 1407 1408 1409 1409 1410 1411 1412 1413 1414 1415 1416 1417 1418 1419 1420 1422 1423 1424 1426 1428 1430 1432 1434 1435 1436 1437 1438 1439 1440 1441 1442 1443 1444 1445 1446 1447 1447 1448 1448 1448 1449 1448 1448
1420 1420 1421 1421 1421 1420 1420 1419 1419 1419 1419 1419 1420 1420 1421 1421 1421 1421 1420 1418 1415 1413 1412 1411 1410 1408 1407 1407 1406 1406 1405 1405 1405 1405 1405 1405 1405 1405 1406 1407 1407 1407 1407 1407 1407 1407 1408 1409 1409 1409 1411 1412 1413 1414 1415 1416 1417 1418 1419 1421 1422 1424 1426 1428 1430 1431 1433 1434 1435 1436 1437 1438 1439 1440 1441 1442 1443 1444 1445 1445 1446 1446 1447 1447 1447 1447 1446
1421 1421 1421 1421 1421 1421 1421 1420 1420 1420 1421 1421 1421 1421 1421 1421 1421 1420 1418 1416 1413 1412 1411 1411 1410 1409 1409 1408 1407 1407 1407 1406 1406 1406 1406 1406 1406 1406 1407 1407 1407 1407 1407 1407 1407 1407 1408 1408 1408 1409 1410 1411 1413 1413 1413 1414 1416 1417 1418 1420 1422 1424 1426 1427 1429 1430 1431 1432 1434 1435 1436 1437 1438 1439 1440 1441 1441 1442 1443 1444 1444 1444 1445 1446 1446 1446 1445
1422 1422 1422 1422 1422 1422 1421 1421 1421 1422 1422 1422 1422 1422 1422 1422 1421 1420 1418 1416 1414 1413 1413 1413 1412 1412 1411 1410 1409 1408 1408 1407 1408 1408 1407 1407 1407 1407 1407 1407 1407 1407 1407 1407 1407 1407 1408 1408 1408 1409 1410 1411 1412 1413 1413 1414 1416 1417 1418 1420 1422 1423 1425 1426 1428 1429 1431 1432 1433 1434 1436 1437 1438 1439 1439 1440 1440 1441 1442 1442 1443 1443 1444 1444 1444 1444 1444
1423 1423 1423 1423 1422 1422 1422 1422 1422 1422 1422 1423 1423 1423 1423 1422 1421 1420 1418 1417 1416 1415 1415 1415 1414 1413 1412 1411 1410 1409 1409 1408 1408 1408 1408 1408 1408 1407 1407 1407 1406 1406 1407 1407 1407 1408 1408 1409 1409 1410 1411 1411 1412 1413 1413 1414 1416 1417 1418 1420 1421 1423 1425 1426 1427 1429 1430 1432 1433 1434 1436 1437 1438 1438 1439 1439 1439 1440 1441 1441 1441 1442 1443 1443 1443 1443 1443
1424 1424 1424 1423 1423 1423 1423 1423 1423 1423 1423 1423 1423 1423 1422 1421 1420 1419 1419 1418 1417 1416 1416 1416 1415 1414 1413 1412 1411 1410 1410 1410 1409 1409 1409 1409 1408 1408 1408 1407 1407 1407 1407 1407 1407 1408 1409 1410 1410 1411 1412 1412 1413 1413 1414 1415 1416 1417 1419 1420 1422 1424 1425 1426 1428 1429 1430 1431 1432 1433 1435 1436 1436 1437 1438 1438 1439 1439 1440 1440 1441 1441 1442 1442 1442 1442 1442
1425 1425 1425 1425 1425 1424 1424 1424 1424 1424 1424 1423 1423 1423 1422 1421 1421 1420 1420 1419 1418 1418 1417 1417 1416 1415 1414 1413 1412 1412 1411 1411 1411 1410 1409 1409 1409 1409 1408 1408 1407 1407 1408 1408 1408 1409 1410 1410 1411 1412 1412 1413 1413 1414 1415 1416 1417 1418 1419 1421 1422 1424 1425 1426 1428 1429 1430 1431 1432 1433 1434 1435 1436 1436 1437 1437 1438 1439 1439 1440 1440 1440 1441 1441 1441 1441 1441
1427 1427 1427 1426 1426 1426 1426 1426 1425 1425 1425 1425 1424 1424 1423 1423 1422 1422 1421 1420 1420 1419 1419 1418 1417 1416 1415 1414 1413 1413 1412 1412 1411 1411 1410 1409 1409 1409 1409 1409 1409 1409 1409 1409 1409 1410 1410 1411 1411 1412 1412 1413 1414 1414 1415 1417 1418 1419 1420 1421 1422 1424 1425 1426 1427 1428 1429 1431 1432 1433 1434 1434 1435 1435 1436 1437 1437 1438 1438 1439 1439 1439 1439 1440 1440 1440 1440
1429 1429 1428 1428 1428 1427 1427 1427 1427 1426 1426 1426 1426 1425 1425 1424 1424 1423 1422 1422 1421 1421 1420 1419 1418 1417 1416 1415 1415 1414 1414 1413 1413 1412 1411 1411 1411 1411 1410 1410 1410 1410 1410 1410 1411 1412 1412 1412 1412 1412 1413 1413 1414 1415 1416 1417 1418 1419 1420 1421 1422 1424 1425 1426 1427 1428 1429 1430 1431 1431 1432 1433 1434 1435 1435 1436 1436 1437 1437 1437 1438 1438 1438 1438 1438 1438 1438
1430 1430 1430 1429 1429 1429 1429 1428 1428 1428 1428 1427 1427 1427 1426 1425 1425 1424 1423 1423 1422 1422 1421 1420 1419 1418 1418 1417 1416 1416 1415 1415 1414 1414 1413 1413 1412 1412 1412 1412 1412 1412 1412 1412 1413 1413 1414 1413 1413 1413 1413 1414 1414 1415 1417 1418 1419 1420 1420 1421 1422 1423 1424 1425 1426 1427 1428 1429 1430 1431 1431 1432 1433 1434 1434 1435 1435 1435 1436 1436 1436 1436 1436 1436 1436 1436 1436
1431 1431 1430 1430 1430 1430 1430 1429 1429 1429 1429 1429 1428 1428 1427 1427 1426 1425 1424 1423 1423 1422 1421 1421 1420 1419 1419 1418 1418 1417 1416 1416 1415 1414 1414 1414 1414 1414 1413 1413 1413 1413 1413 1414 1414 1415 1414 1414 1413 1413 1414 1415 1415 1416 1417 1419 1419 1420 1420 1421 1422 1423 1423 1424 1425 1426 1427 1428 1429 1430 1431 1431 1432 1432 1433 1433 1434 1434 1434 1435 1435 1435 1435 1435 1435 1434 1434
1431 1431 1431 1431 1431 1431 1430 1430 1430 1430 1430 1430 1430 1429 1428 1427 1427 1426 1425 1424 1423 1423 1422 1422 1421 1421 1420 1420 1419 1418 1417 1417 1416 1415 1415 1415 1415 1415 1414 1415 1415 1414 1414 1415 1415 1415 1414 1414 1414 1414 1415 1415 1416 1417 1418 1419 1419 1420 1420 1421 1422 1422 1423 1424 1425 1426 1427 1428 1429 1429 1430 1430 1431 1432 1432 1432 1432 1433 1433 1433 1433 1433 1433 1433 1432 1432 1432
1432 1432 1432 1431 1431 1431 1431 1431 1431 1431 1431 1431 1430 1430 1429 1428 1428 1427 1426 1425 1424 1424 1424 1423 1423 1422 1422 1421 1420 1419 1418 1418 1417 1417 1417 1416 1416 1416 1416 1415 1415 1415 1415 1415 1415 1415 1414 1414 1415 1415 1415 1416 1416 1418 1419 1419 1420 1420 1420 1421 1422 1422 1423 1424 1425 1426 1427 1427 1428 1428 1429 1429 1430 1430 1431 1431 1431 1432 1432 1432 1431 1432 1431 1431 1430 1430 1430
1432 1432 1432 1432 1432 1432 1432 1432 1432 1432 1432 1431 1431 1430 1430 1429 1428 1427 1427 1426 1425 1425 1424 1424 1424 1423 1422 1422 1421 1420 1419 1419 1418 1418 1418 1417 1417 1417 1416 1416 1415 1415 1415 1415 1415 1415 1415 1415 1415 1415 1416 1416 1417 1418 1419 1419 1420 1420 1420 1421 1421 1422 1423 1424 1424 1425 1426 1426 1427 1427 1428 1428 1429 1429 1429 1430 1430 1430 1430 1430 1430 1430 1430 1429 1429 1428 1427
1432 1432 1433 1433 1433 1432 1432 1432 1432 1432 1432 1432 1431 1431 1430 1429 1428 1428 1427 1427 1426 1425 1424 1424 1424 1423 1423 1422 1422 1421 1420 1420 1420 1419 1418 1418 1417 1417 1416 1416 1415 1415 1415 1415 1415 1415 1415 1415 1415 1416 1416 1416 1417 1418 1419 1419 1419 1420 1420 1420 1421 1421 1422 1423 1423 1424 1425 1425 1425 1426 1426 1427 1427 1428 1428 1428 1428 1428 1428 1428 1428 1428 1428 1427 1427 1426 1425
1432 1432 1433 1433 1433 1432 1432 1431 1431 1431 1431 1431 1431 1430 1430 1429 1428 1428 1427 1427 1426 1425 1425 1424 1424 1423 1423 1422 1422 1422 1421 1421 1420 1420 1419 1418 1418 1417 1416 1416 1415 1415 1415 1415 1415 1415 1415 1415 1415 1415 1415 1416 1416 1417 1418 1418 1418 1419 1419 1420 1420 1421 1421 1422 1422 1422 1423 1424 1424 1424 1425 1425 1425 1426 1426 1426 1426 1426 1426 1426 1426 1425 1425 1424 1424 1423 1422
1433 1433 1433 1432 1432 1432 1432 1431 1430 1430 1430 1430 1430 1430 1429 1429 1428 1427 1427 1427 1426 1426 1425 1425 1424 1424 1423 1423 1422 1422 1421 1421 1420 1419 1419 1418 1417 1417 1416 1415 1415 1415 1414 1414 1414 1415 1414 1414 1414 1414 1415 1415 1415 1415 1416 1416 1417 1417 1418 1418 1419 1419 1420 1420 1420 1421 1421 1422 1422 1423 1423 1423 1423 1424 1424 1424 1424 1424 1423 1423 1423 1423 1423 1422 1422 1421 1420
1433 1433 1432 1432 1432 1432 1432 1431 1431 1430 1430 1430 1430 1430 1429 1429 1428 1427 1427 1427 1427 1426 1426 1425 1425 1424 1424 1423 1422 1422 1421 1420 1419 1418 1418 1417 1417 1416 1416 1415 1415 1415 1415 1414 1414 1414 1414 1413 1413 1413 1413 1413 1413 1414 1414 1414 1415 1415 1416 1417 1417 1418 1418 1418 1419 1419 1420 1420 1420 1420 1421 1421 1421 1421 1421 1421 1421 1421 1421 1421 1421 1420 1420 1420 1420 1419 1418